Tracking 28790 objects as of 19-Apr-2024
HD Live streaming from Space Station
objects crossing your sky now

STARLINK-5464

Track STARLINK-5464 now!
10-day predictions
STARLINK-5464 is classified as:


NORAD ID: 54758
Int'l Code: 2022-175A
Perigee: 546.1 km
Apogee: 547.8 km
Inclination: 53.2 °
Period: 95.4 minutes
Semi major axis: 6917 km
RCS: Unknown
Launch date: December 17, 2022
Source: United States (US)
Launch site: AIR FORCE EASTERN TEST RANGE (AFETR)
Your satellite tracking list
Your tracking list is empty




NASA's NSSDC Master Catalog

Two Line Element Set (TLE):
1 54758U 22175A   24110.37638211  .00003137  00000-0  21516-3 0  9997
2 54758  53.2157 253.7604 0001202  68.6667 291.4454 15.08828043 72484
Source of the keplerian elements: AFSPC